TimeCST,TemperatureF,Dew PointF,Humidity,Sea Level PressureIn,VisibilityMPH,Wind Direction,Wind SpeedMPH,Gust SpeedMPH,PrecipitationIn,Events,Conditions,WindDirDegrees,DateUTC
12:15 AM,40.6,31.1,69,29.61,10.0,WNW,6.9,-,N/A,,Clear,290,2014-01-13 06:15:00
12:35 AM,40.8,31.1,68,29.60,10.0,WNW,10.4,-,N/A,,Clear,290,2014-01-13 06:35:00
12:55 AM,40.6,30.9,68,29.60,10.0,WNW,11.5,16.1,N/A,,Clear,290,2014-01-13 06:55:00
1:15 AM,40.6,30.6,67,29.61,10.0,WNW,9.2,-,N/A,,Clear,300,2014-01-13 07:15:00
1:35 AM,40.1,30.2,68,29.61,10.0,WNW,10.4,-,N/A,,Clear,300,2014-01-13 07:35:00
1:55 AM,39.6,30.2,69,29.62,10.0,WNW,6.9,-,N/A,,Clear,290,2014-01-13 07:55:00
2:15 AM,39.2,30.0,70,29.62,10.0,WNW,10.4,-,N/A,,Clear,290,2014-01-13 08:15:00
2:35 AM,39.0,29.8,70,29.63,10.0,WNW,8.1,-,N/A,,Clear,300,2014-01-13 08:35:00
2:55 AM,37.8,29.7,73,29.64,10.0,NW,9.2,-,N/A,,Clear,310,2014-01-13 08:55:00
3:15 AM,36.9,29.3,74,29.66,10.0,NW,10.4,16.1,N/A,,Clear,310,2014-01-13 09:15:00
3:35 AM,36.1,29.3,76,29.67,10.0,NW,10.4,-,N/A,,Clear,320,2014-01-13 09:35:00
3:55 AM,36.0,29.3,77,29.68,10.0,NW,11.5,18.4,N/A,,Clear,320,2014-01-13 09:55:00
4:15 AM,35.2,29.3,79,29.68,10.0,NW,12.7,21.9,N/A,,Scattered Clouds,320,2014-01-13 10:15:00
4:35 AM,34.7,29.3,81,29.69,10.0,NNW,11.5,20.7,N/A,,Scattered Clouds,330,2014-01-13 10:35:00
4:55 AM,34.2,29.1,82,29.70,10.0,NNW,10.4,17.3,N/A,,Scattered Clouds,340,2014-01-13 10:55:00
5:15 AM,34.9,29.5,81,29.71,10.0,NW,11.5,18.4,N/A,,Mostly Cloudy,320,2014-01-13 11:15:00
5:35 AM,35.1,28.4,77,29.72,10.0,NNW,15.0,20.7,N/A,,Overcast,330,2014-01-13 11:35:00
5:55 AM,34.3,26.1,72,29.73,10.0,NNW,12.7,21.9,N/A,,Mostly Cloudy,340,2014-01-13 11:55:00
6:15 AM,32.2,24.1,72,29.73,10.0,NNW,10.4,18.4,N/A,,Scattered Clouds,340,2014-01-13 12:15:00
6:35 AM,32.0,23.7,71,29.73,10.0,NNW,9.2,17.3,N/A,,Clear,330,2014-01-13 12:35:00
6:55 AM,30.7,24.3,77,29.74,10.0,NNW,9.2,-,N/A,,Clear,330,2014-01-13 12:55:00
7:15 AM,30.2,23.4,76,29.75,10.0,NW,9.2,-,N/A,,Clear,320,2014-01-13 13:15:00
7:35 AM,29.5,23.0,77,29.75,10.0,NW,6.9,-,N/A,,Clear,310,2014-01-13 13:35:00
7:55 AM,29.1,22.8,77,29.76,10.0,WNW,4.6,-,N/A,,Clear,300,2014-01-13 13:55:00
8:15 AM,28.2,22.5,79,29.77,10.0,WNW,5.8,-,N/A,,Clear,300,2014-01-13 14:15:00
8:35 AM,28.2,22.3,78,29.77,10.0,WNW,4.6,-,N/A,,Clear,300,2014-01-13 14:35:00
8:55 AM,29.5,23.0,77,29.78,10.0,WNW,6.9,-,N/A,,Clear,300,2014-01-13 14:55:00
9:15 AM,30.7,23.5,75,29.79,10.0,WNW,6.9,-,N/A,,Clear,290,2014-01-13 15:15:00
9:35 AM,32.0,24.3,73,29.79,10.0,NW,8.1,-,N/A,,Clear,310,2014-01-13 15:35:00
9:55 AM,32.4,24.6,73,29.79,10.0,WNW,8.1,-,N/A,,Clear,290,2014-01-13 15:55:00
10:15 AM,33.8,25.3,71,29.79,10.0,WNW,8.1,-,N/A,,Clear,300,2014-01-13 16:15:00
10:35 AM,35.1,25.3,68,29.79,10.0,West,6.9,-,N/A,,Clear,280,2014-01-13 16:35:00
10:55 AM,36.1,25.2,64,29.78,10.0,West,8.1,-,N/A,,Clear,280,2014-01-13 16:55:00
11:15 AM,37.0,24.8,61,29.78,10.0,WNW,11.5,16.1,N/A,,Clear,290,2014-01-13 17:15:00
11:35 AM,38.3,23.7,56,29.77,10.0,West,8.1,-,N/A,,Clear,280,2014-01-13 17:35:00
11:55 AM,39.2,22.5,51,29.75,10.0,West,5.8,-,N/A,,Clear,270,2014-01-13 17:55:00
12:15 PM,39.9,21.7,48,29.75,10.0,West,8.1,-,N/A,,Clear,280,2014-01-13 18:15:00
12:35 PM,40.5,21.6,47,29.74,10.0,WSW,9.2,-,N/A,,Clear,240,2014-01-13 18:35:00
12:55 PM,40.8,20.3,44,29.73,10.0,WSW,10.4,-,N/A,,Clear,250,2014-01-13 18:55:00
1:15 PM,41.9,19.2,40,29.73,10.0,West,10.4,-,N/A,,Clear,270,2014-01-13 19:15:00
1:35 PM,42.8,18.5,38,29.72,10.0,West,11.5,-,N/A,,Clear,260,2014-01-13 19:35:00
1:55 PM,42.8,18.5,38,29.72,10.0,West,11.5,17.3,N/A,,Clear,270,2014-01-13 19:55:00
2:15 PM,42.8,18.5,38,29.71,10.0,WSW,11.5,-,N/A,,Clear,250,2014-01-13 20:15:00
2:35 PM,42.8,18.5,38,29.70,10.0,WSW,11.5,-,N/A,,Clear,240,2014-01-13 20:35:00
2:55 PM,42.1,18.0,38,29.69,10.0,SW,11.5,-,N/A,,Clear,230,2014-01-13 20:55:00
3:15 PM,42.1,18.5,39,29.69,10.0,SW,9.2,-,N/A,,Clear,220,2014-01-13 21:15:00
3:35 PM,41.0,18.1,40,29.69,10.0,SSW,6.9,-,N/A,,Clear,210,2014-01-13 21:35:00
3:55 PM,43.2,19.4,39,29.69,10.0,SSW,6.9,-,N/A,,Scattered Clouds,200,2014-01-13 21:55:00
4:15 PM,42.8,19.0,39,29.70,10.0,SSW,12.7,-,N/A,,Scattered Clouds,210,2014-01-13 22:15:00
4:35 PM,42.6,19.2,39,29.69,10.0,SSW,10.4,-,N/A,,Mostly Cloudy,200,2014-01-13 22:35:00
4:55 PM,41.9,19.2,40,29.69,10.0,SSW,9.2,-,N/A,,Mostly Cloudy,200,2014-01-13 22:55:00
5:15 PM,41.2,20.5,44,29.68,10.0,South,9.2,-,N/A,,Mostly Cloudy,190,2014-01-13 23:15:00
5:35 PM,39.6,20.7,47,29.67,10.0,SSW,9.2,-,N/A,,Mostly Cloudy,200,2014-01-13 23:35:00
5:55 PM,39.2,21.0,48,29.66,10.0,SSW,9.2,-,N/A,,Mostly Cloudy,200,2014-01-13 23:55:00
6:15 PM,39.6,20.7,47,29.65,10.0,SSW,10.4,-,N/A,,Overcast,200,2014-01-14 00:15:00
6:35 PM,38.3,20.8,50,29.64,10.0,SSW,10.4,-,N/A,,Mostly Cloudy,200,2014-01-14 00:35:00
6:55 PM,37.4,21.9,54,29.63,10.0,SSW,10.4,-,N/A,,Clear,200,2014-01-14 00:55:00
7:15 PM,36.9,22.1,55,29.63,10.0,SSW,10.4,-,N/A,,Clear,200,2014-01-14 01:15:00
7:35 PM,36.0,22.5,58,29.62,10.0,SSW,9.2,-,N/A,,Clear,200,2014-01-14 01:35:00
7:55 PM,36.0,22.6,58,29.62,10.0,SSW,10.4,-,N/A,,Clear,200,2014-01-14 01:55:00
8:15 PM,36.5,22.6,57,29.61,10.0,SSW,11.5,-,N/A,,Clear,200,2014-01-14 02:15:00
8:35 PM,35.6,22.6,59,29.61,10.0,SSW,6.9,-,N/A,,Clear,200,2014-01-14 02:35:00
8:55 PM,33.8,23.0,65,29.60,10.0,SSW,8.1,-,N/A,,Clear,200,2014-01-14 02:55:00
9:15 PM,34.7,23.0,62,29.59,10.0,SSW,8.1,-,N/A,,Clear,210,2014-01-14 03:15:00
9:35 PM,35.2,23.4,62,29.59,10.0,SSW,8.1,-,N/A,,Clear,210,2014-01-14 03:35:00
9:55 PM,34.7,23.4,63,29.58,10.0,SSW,6.9,-,N/A,,Clear,210,2014-01-14 03:55:00
10:15 PM,38.1,23.9,57,29.57,10.0,SW,10.4,-,N/A,,Clear,220,2014-01-14 04:15:00
10:35 PM,39.4,23.9,54,29.57,10.0,SW,9.2,-,N/A,,Clear,220,2014-01-14 04:35:00
10:55 PM,39.7,24.1,54,29.57,10.0,WSW,9.2,-,N/A,,Mostly Cloudy,240,2014-01-14 04:55:00
11:15 PM,40.5,25.5,55,29.56,10.0,SW,9.2,-,N/A,,Overcast,230,2014-01-14 05:15:00
11:35 PM,40.6,26.6,57,29.55,10.0,SW,6.9,-,N/A,,Overcast,230,2014-01-14 05:35:00
11:55 PM,41.0,27.7,59,29.55,10.0,SW,9.2,-,N/A,,Mostly Cloudy,220,2014-01-14 05:55:00